Year,Month,Day,Hour,Minute,Value (Times are PST for temperature in C)
2021,02,06,00,00,-36.40
2021,02,06,00,01,-36.40
2021,02,06,00,02,-36.50
2021,02,06,00,03,-36.50
2021,02,06,00,04,-36.50
2021,02,06,00,05,-36.50
2021,02,06,00,06,-36.60
2021,02,06,00,07,-36.60
2021,02,06,00,08,-36.60
2021,02,06,00,09,-36.60
2021,02,06,00,10,-36.60
2021,02,06,00,11,-36.60
2021,02,06,00,12,-36.70
2021,02,06,00,13,-36.70
2021,02,06,00,14,-36.70
2021,02,06,00,15,-36.70
2021,02,06,00,16,-36.70
2021,02,06,00,17,-36.70
2021,02,06,00,18,-36.70
2021,02,06,00,19,-36.70
2021,02,06,00,20,-36.70
2021,02,06,00,21,-36.80
2021,02,06,00,22,-36.80
2021,02,06,00,23,-36.80
2021,02,06,00,24,-36.80
2021,02,06,00,25,-36.80
2021,02,06,00,26,-36.80
2021,02,06,00,27,-36.80
2021,02,06,00,28,-36.80
2021,02,06,00,29,-36.80
2021,02,06,00,30,-36.80
2021,02,06,00,31,-36.80
2021,02,06,00,32,-36.80
2021,02,06,00,33,-36.80
2021,02,06,00,34,-36.90
2021,02,06,00,35,-36.90
2021,02,06,00,36,-36.90
2021,02,06,00,37,-36.90
2021,02,06,00,38,-36.90
2021,02,06,00,39,-36.90
2021,02,06,00,40,-36.90
2021,02,06,00,41,-36.90
2021,02,06,00,42,-36.90
2021,02,06,00,43,-36.80
2021,02,06,00,44,-36.80
2021,02,06,00,45,-36.80
2021,02,06,00,46,-36.80
2021,02,06,00,47,-36.80
2021,02,06,00,48,-36.80
2021,02,06,00,49,-36.80
2021,02,06,00,50,-36.90
2021,02,06,00,51,-36.90
2021,02,06,00,52,-36.90
2021,02,06,00,53,-36.80
2021,02,06,00,54,-36.80
2021,02,06,00,55,-36.80
2021,02,06,00,56,-36.80
2021,02,06,00,57,-36.80
2021,02,06,00,58,-36.80
2021,02,06,00,59,-36.80
2021,02,06,01,00,-36.80
2021,02,06,01,01,-36.80
2021,02,06,01,02,-36.80
2021,02,06,01,03,-36.80
2021,02,06,01,04,-36.80
2021,02,06,01,05,-36.70
2021,02,06,01,06,-36.70
2021,02,06,01,07,-36.70
2021,02,06,01,08,-36.70
2021,02,06,01,09,-36.70
2021,02,06,01,10,-36.80
2021,02,06,01,11,-36.80
2021,02,06,01,12,-36.80
2021,02,06,01,13,-36.80
2021,02,06,01,14,-36.80
2021,02,06,01,15,-36.80
2021,02,06,01,16,-36.80
2021,02,06,01,17,-36.80
2021,02,06,01,18,-36.90
2021,02,06,01,19,-36.90
2021,02,06,01,20,-36.90
2021,02,06,01,21,-36.90
2021,02,06,01,22,-36.90
2021,02,06,01,23,-36.90
2021,02,06,01,24,-36.90
2021,02,06,01,25,-36.90
2021,02,06,01,26,-36.90
2021,02,06,01,27,-36.90
2021,02,06,01,28,-36.90
2021,02,06,01,29,-36.80
2021,02,06,01,30,-36.80
2021,02,06,01,31,-36.80
2021,02,06,01,32,-36.90
2021,02,06,01,33,-36.90
2021,02,06,01,34,-36.90
2021,02,06,01,35,-36.90
2021,02,06,01,36,-36.90
2021,02,06,01,37,-36.90
2021,02,06,01,38,-36.90
2021,02,06,01,39,-36.90
2021,02,06,01,40,-36.90
2021,02,06,01,41,-36.90
2021,02,06,01,42,-36.90
2021,02,06,01,43,-36.90
2021,02,06,01,44,-36.90
2021,02,06,01,45,-36.90
2021,02,06,01,46,-36.80
2021,02,06,01,47,-36.80
2021,02,06,01,48,-36.80
2021,02,06,01,49,-36.80
2021,02,06,01,50,-36.90
2021,02,06,01,51,-36.90
2021,02,06,01,52,-36.90
2021,02,06,01,53,-36.90
2021,02,06,01,54,-36.90
2021,02,06,01,55,-36.90
2021,02,06,01,56,-36.90
2021,02,06,01,57,-36.90
2021,02,06,01,58,-36.90
2021,02,06,01,59,-36.90
2021,02,06,02,00,-36.90
2021,02,06,02,01,-36.90
2021,02,06,02,02,-36.90
2021,02,06,02,03,-36.90
2021,02,06,02,04,-36.90
2021,02,06,02,05,-36.90
2021,02,06,02,06,-36.90
2021,02,06,02,07,-36.90
2021,02,06,02,08,-36.90
2021,02,06,02,09,-36.90
2021,02,06,02,10,-36.90
2021,02,06,02,11,-36.90
2021,02,06,02,12,-36.90
2021,02,06,02,13,-36.90
2021,02,06,04,12,-37.40
2021,02,06,04,13,-37.40
2021,02,06,04,14,-37.40
2021,02,06,04,15,-37.40
2021,02,06,04,16,-37.40
2021,02,06,04,17,-37.40
2021,02,06,04,18,-37.40
2021,02,06,04,19,-37.40
2021,02,06,04,20,-37.50
2021,02,06,04,21,-37.50
2021,02,06,04,22,-37.50
2021,02,06,04,23,-37.50
2021,02,06,04,24,-37.50
2021,02,06,04,25,-37.50
2021,02,06,04,26,-37.50
2021,02,06,04,27,-37.50
2021,02,06,04,28,-37.50
2021,02,06,04,29,-37.50
2021,02,06,04,30,-37.50
2021,02,06,11,45,-37.70
2021,02,06,11,46,-37.70
2021,02,06,11,47,-37.70
2021,02,06,11,48,-37.70
2021,02,06,11,49,-37.70
2021,02,06,11,50,-37.70
2021,02,06,11,51,-37.70
2021,02,06,11,52,-37.70
2021,02,06,11,53,-37.70
2021,02,06,11,54,-37.60
2021,02,06,11,55,-37.60
2021,02,06,11,56,-37.60
2021,02,06,11,57,-37.60
2021,02,06,11,58,-37.60
2021,02,06,11,59,-37.60
2021,02,06,12,00,-37.60
2021,02,06,12,01,-37.60
2021,02,06,12,02,-37.50
2021,02,06,12,03,-37.50
2021,02,06,12,04,-37.50
2021,02,06,12,05,-37.50
2021,02,06,12,06,-37.50
2021,02,06,12,07,-37.50
2021,02,06,12,08,-37.40
2021,02,06,12,09,-37.40
2021,02,06,12,10,-37.40
2021,02,06,12,11,-37.40
2021,02,06,12,12,-37.40
2021,02,06,12,13,-37.30
2021,02,06,12,14,-37.30
2021,02,06,12,15,-37.30
2021,02,06,12,16,-37.30
2021,02,06,12,17,-37.20
2021,02,06,12,18,-37.20
2021,02,06,12,19,-37.20
2021,02,06,12,20,-37.20
2021,02,06,12,21,-37.10
2021,02,06,12,22,-37.10
2021,02,06,12,23,-37.10
2021,02,06,12,24,-37.00
2021,02,06,12,25,-37.00
2021,02,06,12,26,-36.90
2021,02,06,12,27,-36.90
2021,02,06,12,28,-36.90
2021,02,06,12,29,-36.80
2021,02,06,12,30,-36.80
2021,02,06,12,31,-36.80
2021,02,06,12,32,-36.80
2021,02,06,12,33,-36.80
2021,02,06,12,34,-36.80
2021,02,06,12,35,-36.80
2021,02,06,12,36,-36.80
2021,02,06,12,37,-36.80
2021,02,06,12,38,-36.70
2021,02,06,12,39,-36.70
2021,02,06,12,40,-36.70
2021,02,06,12,41,-36.70
2021,02,06,12,42,-36.70
2021,02,06,12,43,-36.60
2021,02,06,12,44,-36.60
2021,02,06,12,45,-36.60
2021,02,06,12,46,-36.50
2021,02,06,12,47,-36.50
2021,02,06,12,48,-36.40
2021,02,06,12,49,-36.40
2021,02,06,12,50,-36.30
2021,02,06,12,51,-36.30
2021,02,06,12,52,-36.30
2021,02,06,12,53,-36.20
2021,02,06,12,54,-36.20
2021,02,06,12,55,-36.20
2021,02,06,12,56,-36.10
2021,02,06,12,57,-36.10
2021,02,06,12,58,-36.10
2021,02,06,12,59,-36.10
2021,02,06,13,00,-36.00
2021,02,06,13,01,-36.00
2021,02,06,13,02,-36.00
2021,02,06,13,03,-36.00
2021,02,06,13,04,-36.00
2021,02,06,13,05,-36.00
2021,02,06,13,06,-35.90
2021,02,06,13,07,-35.90
2021,02,06,13,08,-35.90
2021,02,06,13,09,-35.80
2021,02,06,13,10,-35.80
2021,02,06,13,11,-35.80
2021,02,06,13,12,-35.80
2021,02,06,13,13,-35.70
2021,02,06,13,14,-35.70
2021,02,06,13,15,-35.70
2021,02,06,13,16,-35.60
2021,02,06,13,17,-35.60
2021,02,06,13,18,-35.60
2021,02,06,13,19,-35.50
2021,02,06,13,20,-35.50
2021,02,06,13,21,-35.50
2021,02,06,13,22,-35.40
2021,02,06,13,23,-35.40
2021,02,06,13,24,-35.30
2021,02,06,13,25,-35.30
2021,02,06,13,26,-35.30
2021,02,06,13,27,-35.20
2021,02,06,13,28,-35.10
2021,02,06,13,29,-35.10
2021,02,06,13,30,-35.00
2021,02,06,13,31,-35.00
2021,02,06,13,32,-35.00
2021,02,06,13,33,-35.10
2021,02,06,13,34,-35.10
2021,02,06,13,35,-35.10
2021,02,06,13,36,-35.10
2021,02,06,13,37,-35.10
2021,02,06,13,38,-35.20
2021,02,06,13,39,-35.20
2021,02,06,13,40,-35.20
2021,02,06,13,41,-35.20
2021,02,06,13,42,-35.10
2021,02,06,13,43,-35.10
2021,02,06,13,44,-35.10
2021,02,06,13,45,-35.10
2021,02,06,13,46,-35.00
2021,02,06,13,47,-35.00
2021,02,06,13,48,-34.90
2021,02,06,13,49,-34.90
2021,02,06,13,50,-34.90
2021,02,06,13,51,-34.90
2021,02,06,13,52,-34.90
2021,02,06,13,53,-34.90
2021,02,06,13,54,-34.90
2021,02,06,13,55,-34.90
2021,02,06,13,56,-34.90
2021,02,06,13,57,-34.80
2021,02,06,13,58,-34.80
2021,02,06,13,59,-34.80
2021,02,06,14,00,-34.80
2021,02,06,14,01,-34.80
2021,02,06,14,02,-34.80
2021,02,06,14,03,-34.80
2021,02,06,14,04,-34.80
2021,02,06,14,05,-34.70
2021,02,06,14,06,-34.70
2021,02,06,14,07,-34.70
2021,02,06,14,08,-34.70
2021,02,06,14,09,-34.70
2021,02,06,14,10,-34.70
2021,02,06,14,11,-34.70
2021,02,06,14,12,-34.70
2021,02,06,14,13,-34.60
2021,02,06,14,14,-34.60
2021,02,06,14,15,-34.60
2021,02,06,14,16,-34.50
2021,02,06,14,17,-34.50
2021,02,06,14,18,-34.50
2021,02,06,14,19,-34.40
2021,02,06,14,20,-34.40
2021,02,06,14,21,-34.40
2021,02,06,14,22,-34.40
2021,02,06,14,23,-34.30
2021,02,06,14,24,-34.30
2021,02,06,14,25,-34.30
2021,02,06,14,26,-34.30
2021,02,06,14,27,-34.30
2021,02,06,14,28,-34.30
2021,02,06,14,29,-34.30
2021,02,06,14,30,-34.20
2021,02,06,14,31,-34.20
2021,02,06,14,32,-34.20
2021,02,06,14,33,-34.20
2021,02,06,14,34,-34.20
2021,02,06,14,35,-34.10
2021,02,06,14,36,-34.10
2021,02,06,14,37,-34.10
2021,02,06,14,38,-34.10
2021,02,06,14,39,-34.10
2021,02,06,14,40,-34.10
2021,02,06,14,41,-34.10
2021,02,06,14,42,-34.00
2021,02,06,14,43,-34.00
2021,02,06,14,44,-34.00
2021,02,06,14,45,-34.00
2021,02,06,14,46,-33.90
2021,02,06,14,47,-33.90
2021,02,06,14,48,-33.90
2021,02,06,14,49,-33.80
2021,02,06,14,50,-33.80
2021,02,06,14,51,-33.80
2021,02,06,14,52,-33.80
2021,02,06,14,53,-33.70
2021,02,06,14,54,-33.70
2021,02,06,14,55,-33.70
2021,02,06,14,56,-33.60
2021,02,06,14,57,-33.60
2021,02,06,14,58,-33.50
2021,02,06,14,59,-33.50
2021,02,06,15,00,-33.50
2021,02,06,15,01,-33.40
2021,02,06,15,02,-33.40
2021,02,06,15,03,-33.40
2021,02,06,15,04,-33.30
2021,02,06,15,05,-33.30
2021,02,06,15,06,-33.30
2021,02,06,15,07,-33.30
2021,02,06,15,08,-33.30
2021,02,06,15,09,-33.30
2021,02,06,15,10,-33.30
2021,02,06,15,11,-33.30
2021,02,06,15,12,-33.20
2021,02,06,15,13,-33.20
2021,02,06,15,14,-33.20
2021,02,06,15,15,-33.20
2021,02,06,15,16,-33.20
2021,02,06,15,17,-33.10
2021,02,06,15,18,-33.10
2021,02,06,15,19,-33.10
2021,02,06,15,20,-33.00
2021,02,06,15,21,-33.00
2021,02,06,15,22,-33.00
2021,02,06,15,23,-33.00
2021,02,06,15,24,-32.90
2021,02,06,15,25,-32.90
2021,02,06,15,26,-32.90
2021,02,06,15,27,-32.90
2021,02,06,15,28,-32.90
2021,02,06,15,29,-32.90
2021,02,06,15,30,-32.90
2021,02,06,15,31,-32.80
2021,02,06,15,32,-32.80
2021,02,06,15,33,-32.80
2021,02,06,15,34,-32.80
2021,02,06,15,35,-32.80
2021,02,06,15,36,-32.80
2021,02,06,15,37,-32.70
2021,02,06,15,38,-32.70
2021,02,06,15,39,-32.70
2021,02,06,15,40,-32.70
2021,02,06,15,41,-32.70
2021,02,06,15,42,-32.70
2021,02,06,15,43,-32.60
2021,02,06,15,44,-32.60
2021,02,06,15,45,-32.60
2021,02,06,15,46,-32.60
2021,02,06,15,47,-32.60
2021,02,06,15,48,-32.60
2021,02,06,15,49,-32.60
2021,02,06,15,50,-32.60
2021,02,06,15,51,-32.60
2021,02,06,15,52,-32.60
2021,02,06,15,53,-32.60
2021,02,06,15,54,-32.60
2021,02,06,15,55,-32.60
2021,02,06,15,56,-32.60
2021,02,06,15,57,-32.60
2021,02,06,15,58,-32.60
2021,02,06,15,59,-32.50
2021,02,06,16,00,-32.50
2021,02,06,16,01,-32.50
2021,02,06,16,02,-32.50
2021,02,06,16,03,-32.50
2021,02,06,16,04,-32.50
2021,02,06,16,05,-32.40
2021,02,06,16,06,-32.40
2021,02,06,16,07,-32.40
2021,02,06,16,08,-32.30
2021,02,06,16,09,-32.30
2021,02,06,16,10,-32.30
2021,02,06,16,11,-32.30
2021,02,06,16,12,-32.40
2021,02,06,16,13,-32.40
2021,02,06,16,14,-32.40
2021,02,06,16,15,-32.40
2021,02,06,16,16,-32.40
2021,02,06,16,17,-32.40
2021,02,06,16,18,-32.40
2021,02,06,16,19,-32.40
2021,02,06,16,20,-32.40
2021,02,06,16,21,-32.40
2021,02,06,16,22,-32.40
2021,02,06,16,23,-32.40
2021,02,06,16,24,-32.40
2021,02,06,16,25,-32.40
2021,02,06,16,26,-32.40
2021,02,06,16,27,-32.40
2021,02,06,16,28,-32.40
2021,02,06,16,29,-32.40
2021,02,06,16,30,-32.40
2021,02,06,16,31,-32.40
2021,02,06,16,32,-32.40
2021,02,06,16,33,-32.40
2021,02,06,16,34,-32.40
2021,02,06,16,35,-32.50
2021,02,06,16,36,-32.50
2021,02,06,16,37,-32.50
2021,02,06,16,38,-32.50
2021,02,06,16,39,-32.60
2021,02,06,16,40,-32.60
2021,02,06,16,41,-32.60
2021,02,06,16,42,-32.60
2021,02,06,16,43,-32.60
2021,02,06,16,44,-32.60
2021,02,06,16,45,-32.60
2021,02,06,16,46,-32.70
2021,02,06,16,47,-32.70
2021,02,06,16,48,-32.70
2021,02,06,16,49,-32.70
2021,02,06,16,50,-32.80
2021,02,06,16,51,-32.80
2021,02,06,16,52,-32.90
2021,02,06,16,53,-32.90
2021,02,06,16,54,-32.90
2021,02,06,16,55,-32.90
2021,02,06,16,56,-32.90
2021,02,06,16,57,-33.00
2021,02,06,16,58,-33.00
2021,02,06,16,59,-33.00
2021,02,06,17,00,-33.00
2021,02,06,17,01,-33.00
2021,02,06,17,02,-33.00
2021,02,06,17,03,-33.00
2021,02,06,17,04,-33.10
2021,02,06,17,05,-33.10
2021,02,06,17,06,-33.10
2021,02,06,17,07,-33.10
2021,02,06,17,08,-33.10
2021,02,06,17,09,-33.10
2021,02,06,17,10,-33.10
2021,02,06,17,11,-33.10
2021,02,06,17,12,-33.10
2021,02,06,17,13,-33.10
2021,02,06,17,14,-33.10
2021,02,06,17,15,-33.10
2021,02,06,17,16,-33.20
2021,02,06,17,17,-33.20
2021,02,06,17,18,-33.20
2021,02,06,17,19,-33.20
2021,02,06,17,20,-33.20
2021,02,06,17,21,-33.30
2021,02,06,17,22,-33.30
2021,02,06,17,23,-33.30
2021,02,06,17,24,-33.30
2021,02,06,17,25,-33.30
2021,02,06,17,26,-33.30
2021,02,06,17,27,-33.30
2021,02,06,17,28,-33.30
2021,02,06,17,29,-33.30
2021,02,06,17,30,-33.30
2021,02,06,17,31,-33.30
2021,02,06,17,32,-33.30
2021,02,06,17,33,-33.30
2021,02,06,17,34,-33.30
2021,02,06,17,35,-33.40
2021,02,06,17,36,-33.40
2021,02,06,17,37,-33.40
2021,02,06,17,38,-33.40
2021,02,06,17,39,-33.40
2021,02,06,17,40,-33.40
2021,02,06,17,41,-33.40
2021,02,06,17,42,-33.40
2021,02,06,17,43,-33.40
2021,02,06,17,44,-33.40
2021,02,06,17,45,-33.40
2021,02,06,17,46,-33.40
2021,02,06,17,47,-33.40
2021,02,06,17,48,-33.40
2021,02,06,17,49,-33.40
2021,02,06,17,50,-33.40
2021,02,06,17,51,-33.40
2021,02,06,17,52,-33.40
2021,02,06,17,53,-33.40
2021,02,06,17,54,-33.40
2021,02,06,17,55,-33.40
2021,02,06,17,56,-33.40
2021,02,06,17,57,-33.30
2021,02,06,17,58,-33.30
2021,02,06,17,59,-33.30
2021,02,06,18,00,-33.30
2021,02,06,18,01,-33.30
2021,02,06,18,02,-33.30
2021,02,06,18,03,-33.30
2021,02,06,18,04,-33.30
2021,02,06,18,05,-33.30
2021,02,06,18,06,-33.20
2021,02,06,18,07,-33.20
2021,02,06,18,08,-33.20
2021,02,06,18,09,-33.20
2021,02,06,18,10,-33.20
2021,02,06,18,11,-33.20
2021,02,06,18,12,-33.20
2021,02,06,18,13,-33.20
2021,02,06,18,14,-33.20
2021,02,06,18,15,-33.10
2021,02,06,18,16,-33.10
2021,02,06,18,17,-33.10
2021,02,06,18,18,-33.10
2021,02,06,18,19,-33.10
2021,02,06,18,20,-33.10
2021,02,06,18,21,-33.10
2021,02,06,18,22,-33.10
2021,02,06,18,23,-33.10
2021,02,06,18,24,-33.10
2021,02,06,18,25,-33.00
2021,02,06,18,26,-33.00
2021,02,06,18,27,-33.00
2021,02,06,18,28,-33.00
2021,02,06,18,29,-33.00
2021,02,06,18,30,-32.90
2021,02,06,18,31,-32.90
2021,02,06,18,32,-32.90
2021,02,06,18,33,-32.90
2021,02,06,18,34,-32.80
2021,02,06,18,35,-32.80
2021,02,06,18,36,-32.80
2021,02,06,18,37,-32.80
2021,02,06,18,38,-32.80
2021,02,06,18,39,-32.80
2021,02,06,18,40,-32.80
2021,02,06,18,41,-32.80
2021,02,06,18,42,-32.80
2021,02,06,18,43,-32.80
2021,02,06,18,44,-32.80
2021,02,06,18,45,-32.80
2021,02,06,18,46,-32.80
2021,02,06,18,47,-32.80
2021,02,06,18,48,-32.80
2021,02,06,18,49,-32.80
2021,02,06,18,50,-32.80
2021,02,06,18,51,-32.80
2021,02,06,18,52,-32.80
2021,02,06,18,53,-32.80
2021,02,06,18,54,-32.80
2021,02,06,18,55,-32.80
2021,02,06,18,56,-32.80
2021,02,06,18,57,-32.70
2021,02,06,18,58,-32.70
2021,02,06,18,59,-32.70
2021,02,06,19,00,-32.70
2021,02,06,19,01,-32.70
2021,02,06,19,02,-32.70
2021,02,06,19,03,-32.70
2021,02,06,19,04,-32.70
2021,02,06,19,05,-32.70
2021,02,06,19,06,-32.70
2021,02,06,19,07,-32.70
2021,02,06,19,08,-32.70
2021,02,06,19,09,-32.70
2021,02,06,19,10,-32.70
2021,02,06,19,11,-32.60
2021,02,06,19,12,-32.60
2021,02,06,19,13,-32.60
2021,02,06,19,14,-32.60
2021,02,06,19,15,-32.60
2021,02,06,19,16,-32.60
2021,02,06,19,17,-32.60
2021,02,06,19,18,-32.60
2021,02,06,19,19,-32.60
2021,02,06,19,20,-32.60
2021,02,06,19,21,-32.60
2021,02,06,19,22,-32.60
2021,02,06,19,23,-32.60
2021,02,06,19,24,-32.60
2021,02,06,19,25,-32.60
2021,02,06,19,26,-32.60
2021,02,06,19,27,-32.60
2021,02,06,19,28,-32.60
2021,02,06,19,29,-32.60
2021,02,06,19,30,-32.50
2021,02,06,19,31,-32.50
2021,02,06,19,32,-32.50
2021,02,06,19,33,-32.50
2021,02,06,19,34,-32.50
2021,02,06,19,35,-32.50
2021,02,06,19,36,-32.50
2021,02,06,19,37,-32.50
2021,02,06,19,38,-32.50
2021,02,06,19,39,-32.50
2021,02,06,19,40,-32.50
2021,02,06,19,41,-32.50
2021,02,06,19,42,-32.50
2021,02,06,19,43,-32.50
2021,02,06,19,44,-32.50
2021,02,06,19,45,-32.50
2021,02,06,19,46,-32.50
2021,02,06,19,47,-32.50
2021,02,06,19,48,-32.50
2021,02,06,19,49,-32.40
2021,02,06,19,50,-32.40
2021,02,06,19,51,-32.40
2021,02,06,19,52,-32.40
2021,02,06,19,53,-32.40
2021,02,06,19,54,-32.40
2021,02,06,19,55,-32.40
2021,02,06,19,56,-32.40
2021,02,06,19,57,-32.40
2021,02,06,19,58,-32.30
2021,02,06,19,59,-32.30
2021,02,06,20,00,-32.30
2021,02,06,20,01,-32.30
2021,02,06,20,02,-32.20
2021,02,06,20,03,-32.20
2021,02,06,20,04,-32.20
2021,02,06,20,05,-32.20
2021,02,06,20,06,-32.20
2021,02,06,20,07,-32.20
2021,02,06,20,08,-32.20
2021,02,06,20,09,-32.10
2021,02,06,20,10,-32.10
2021,02,06,20,11,-32.10
2021,02,06,20,12,-32.00
2021,02,06,20,13,-32.00
2021,02,06,20,14,-32.00
2021,02,06,20,15,-31.90
2021,02,06,20,16,-31.90
2021,02,06,20,17,-31.90
2021,02,06,20,18,-31.90
2021,02,06,20,19,-31.90
2021,02,06,20,20,-31.90
2021,02,06,20,21,-31.90
2021,02,06,20,22,-31.80
2021,02,06,20,23,-31.80
2021,02,06,20,24,-31.80
2021,02,06,20,25,-31.80
2021,02,06,20,26,-31.80
2021,02,06,20,27,-31.80
2021,02,06,20,28,-31.80
2021,02,06,20,29,-31.80
2021,02,06,20,30,-31.80
2021,02,06,20,31,-31.70
2021,02,06,20,32,-31.70
2021,02,06,20,33,-31.70
2021,02,06,20,34,-31.70
2021,02,06,20,35,-31.70
2021,02,06,20,36,-31.70
2021,02,06,20,37,-31.70
2021,02,06,20,38,-31.70
2021,02,06,20,39,-31.70
2021,02,06,20,40,-31.70
2021,02,06,20,41,-31.70
2021,02,06,20,42,-31.70
2021,02,06,20,43,-31.70
2021,02,06,20,44,-31.70
2021,02,06,20,45,-31.70
2021,02,06,20,46,-31.70
2021,02,06,20,47,-31.70
2021,02,06,20,48,-31.70
2021,02,06,20,49,-31.70
2021,02,06,20,50,-31.70
2021,02,06,20,51,-31.70
2021,02,06,20,52,-31.70
2021,02,06,20,53,-31.70
2021,02,06,20,54,-31.70
2021,02,06,20,55,-31.70
2021,02,06,20,56,-31.80
2021,02,06,20,57,-31.80
2021,02,06,20,58,-31.80
2021,02,06,20,59,-31.70
2021,02,06,21,00,-31.70
2021,02,06,21,01,-31.70
2021,02,06,21,02,-31.70
2021,02,06,21,03,-31.70
2021,02,06,21,04,-31.70
2021,02,06,21,05,-31.70
2021,02,06,21,06,-31.70
2021,02,06,21,07,-31.70
2021,02,06,21,08,-31.70
2021,02,06,21,09,-31.70
2021,02,06,21,10,-31.70
2021,02,06,21,11,-31.70
2021,02,06,21,12,-31.70
2021,02,06,21,13,-31.70
2021,02,06,21,14,-31.70
2021,02,06,21,15,-31.60
2021,02,06,21,16,-31.60
2021,02,06,21,17,-31.60
2021,02,06,21,18,-31.60
2021,02,06,21,19,-31.60
2021,02,06,21,20,-31.60
2021,02,06,21,21,-31.60
2021,02,06,21,22,-31.60
2021,02,06,21,23,-31.60
2021,02,06,21,24,-31.60
2021,02,06,21,25,-31.60
2021,02,06,21,26,-31.50
2021,02,06,21,27,-31.50
2021,02,06,21,28,-31.50
2021,02,06,21,29,-31.50
2021,02,06,21,30,-31.50
2021,02,06,21,31,-31.50
2021,02,06,21,32,-31.40
2021,02,06,21,33,-31.40
2021,02,06,21,34,-31.40
2021,02,06,21,35,-31.40
2021,02,06,21,36,-31.40
2021,02,06,21,37,-31.40
2021,02,06,21,38,-31.40
2021,02,06,21,39,-31.40
2021,02,06,21,40,-31.40
2021,02,06,21,41,-31.40
2021,02,06,21,42,-31.50
2021,02,06,21,43,-31.50
2021,02,06,21,44,-31.50
2021,02,06,21,45,-31.60
2021,02,06,21,46,-31.60
2021,02,06,21,47,-31.60
2021,02,06,21,48,-31.60
2021,02,06,21,49,-31.60
2021,02,06,21,50,-31.70
2021,02,06,21,51,-31.70
2021,02,06,21,52,-31.70
2021,02,06,21,53,-31.70
2021,02,06,21,54,-31.70
2021,02,06,21,55,-31.70
2021,02,06,21,56,-31.70
2021,02,06,21,57,-31.70
2021,02,06,21,58,-31.70
2021,02,06,21,59,-31.70
2021,02,06,22,00,-31.70
2021,02,06,22,01,-31.70
2021,02,06,22,02,-31.70
2021,02,06,22,03,-31.70
2021,02,06,22,04,-31.70
2021,02,06,22,05,-31.70
2021,02,06,22,06,-31.80
2021,02,06,22,07,-31.80
2021,02,06,22,08,-31.80
2021,02,06,22,09,-31.80
2021,02,06,22,10,-31.80
2021,02,06,22,11,-31.80
2021,02,06,22,12,-31.80
2021,02,06,22,13,-31.80
2021,02,06,22,14,-31.80
2021,02,06,22,15,-31.80
2021,02,06,22,16,-31.80
2021,02,06,22,17,-31.90
2021,02,06,22,18,-31.90
2021,02,06,22,19,-31.90
2021,02,06,22,20,-31.90
2021,02,06,22,21,-31.90
2021,02,06,22,22,-32.00
2021,02,06,22,23,-32.00
2021,02,06,22,24,-32.00
2021,02,06,22,25,-32.10
2021,02,06,22,26,-32.10
2021,02,06,22,27,-32.10
2021,02,06,22,28,-32.10
2021,02,06,22,29,-32.20
2021,02,06,22,30,-32.20
2021,02,06,22,31,-32.20
2021,02,06,22,32,-32.20
2021,02,06,22,33,-32.20
2021,02,06,22,34,-32.30
2021,02,06,22,35,-32.30
2021,02,06,22,36,-32.30
2021,02,06,22,37,-32.30
2021,02,06,22,38,-32.40
2021,02,06,22,39,-32.40
2021,02,06,22,40,-32.40
2021,02,06,22,41,-32.50
2021,02,06,22,42,-32.50
2021,02,06,22,43,-32.60
2021,02,06,22,44,-32.60
2021,02,06,22,45,-32.70
2021,02,06,22,46,-32.70
2021,02,06,22,47,-32.70
2021,02,06,22,48,-32.70
2021,02,06,22,49,-32.80
2021,02,06,22,50,-32.80
2021,02,06,22,51,-32.80
2021,02,06,22,52,-32.80
2021,02,06,22,53,-32.90
2021,02,06,22,54,-32.90
2021,02,06,22,55,-32.90
2021,02,06,22,56,-32.90
2021,02,06,22,57,-33.00
2021,02,06,22,58,-33.00
2021,02,06,22,59,-33.10
2021,02,06,23,00,-33.10
2021,02,06,23,01,-33.10
2021,02,06,23,02,-33.10
2021,02,06,23,03,-33.20
2021,02,06,23,04,-33.20
2021,02,06,23,05,-33.20
2021,02,06,23,06,-33.20
2021,02,06,23,07,-33.30
2021,02,06,23,08,-33.30
2021,02,06,23,09,-33.30
2021,02,06,23,10,-33.30
2021,02,06,23,11,-33.30
2021,02,06,23,12,-33.40
2021,02,06,23,13,-33.40
2021,02,06,23,14,-33.40
2021,02,06,23,15,-33.40
2021,02,06,23,16,-33.50
2021,02,06,23,17,-33.50
2021,02,06,23,18,-33.60
2021,02,06,23,19,-33.60
2021,02,06,23,20,-33.60
2021,02,06,23,21,-33.60
2021,02,06,23,22,-33.70
2021,02,06,23,23,-33.70
2021,02,06,23,24,-33.70
2021,02,06,23,25,-33.70
2021,02,06,23,26,-33.70
2021,02,06,23,27,-33.70
2021,02,06,23,28,-33.80
2021,02,06,23,29,-33.80
2021,02,06,23,30,-33.80
2021,02,06,23,31,-33.80
2021,02,06,23,32,-33.90
2021,02,06,23,33,-33.90
2021,02,06,23,34,-33.90
2021,02,06,23,35,-33.90
2021,02,06,23,36,-33.90
2021,02,06,23,37,-33.90
2021,02,06,23,38,-33.90
2021,02,06,23,39,-33.90
2021,02,06,23,40,-33.90
2021,02,06,23,41,-33.90
2021,02,06,23,42,-33.90
2021,02,06,23,43,-33.90
2021,02,06,23,44,-33.90
2021,02,06,23,45,-33.90
2021,02,06,23,46,-33.90
2021,02,06,23,47,-33.90
2021,02,06,23,48,-34.00
2021,02,06,23,49,-34.00
2021,02,06,23,50,-34.00
2021,02,06,23,51,-34.00
2021,02,06,23,52,-34.10
2021,02,06,23,53,-34.10
2021,02,06,23,54,-34.10
2021,02,06,23,55,-34.10
2021,02,06,23,56,-34.10
2021,02,06,23,57,-34.10
2021,02,06,23,58,-34.10
2021,02,06,23,59,-34.20
